Location: Prairie State College
(41.5244°N, 87.6382°W)
Time: 17:03:32
(UTC-05:00)

Cosmos 1140 Rocket - Visible Passes

Search period start: 27 June 2016 00:00
Search period end: 07 July 2016 00:00
Orbit: 745 x 767 km, 74.1° (Epoch: 27 June)

Date Brightness Start Highest point End Pass type
(mag) Time Alt. Az. Time Alt. Az. Time Alt. Az.
27 Jun 6.2 02:10:45 10° NNE 02:13:49 16° NE 02:16:53 10° E visible
27 Jun 3.4 03:51:05 10° NNW 03:56:12 71° WSW 04:01:17 10° S visible
28 Jun 3.9 03:10:35 10° NNW 03:15:42 63° ENE 03:20:46 10° SSE visible
29 Jun 4.9 02:30:22 10° N 02:35:04 34° ENE 02:39:43 10° SE visible
29 Jun 4.4 04:12:24 10° NW 04:16:43 28° W 04:21:01 10° SSW visible
30 Jun 5.8 01:50:30 10° N 01:54:17 20° ENE 01:58:02 10° ESE visible
30 Jun 3.6 03:31:25 10° NNW 03:36:25 52° WSW 03:40:11 17° S visible
01 Jul 6.2 01:11:30 10° NNE 01:13:20 12° NE 01:15:09 10° ENE visible
01 Jul 3.4 02:50:49 10° NNW 02:55:58 84° ENE 02:59:21 22° SSE visible
01 Jul 5.4 04:35:55 10° W 04:36:57 11° W 04:38:00 10° WSW visible
02 Jul 4.3 02:10:28 10° N 02:15:24 45° ENE 02:18:40 20° SE visible
02 Jul 4.8 03:53:05 10° NW 03:56:50 21° W 03:58:37 17° SW visible
03 Jul 5.3 01:30:24 10° N 01:34:41 26° ENE 01:38:06 14° ESE visible
03 Jul 4.0 03:11:51 10° NW 03:16:36 38° WSW 03:18:03 31° SW visible
04 Jul 5.9 00:50:50 10° NNE 00:53:49 15° NE 00:56:48 10° E visible
04 Jul 3.3 02:31:05 10° NNW 02:36:13 73° WSW 02:37:36 48° S visible
05 Jul 3.8 01:50:37 10° NNW 01:55:43 61° ENE 01:57:12 42° SE visible
05 Jul 5.1 03:34:00 10° WNW 03:36:56 15° W 03:37:11 15° W visible
06 Jul 4.8 01:10:24 10° N 01:15:04 34° ENE 01:16:54 26° ESE visible
06 Jul 4.4 02:52:22 10° NW 02:56:44 29° W 02:56:52 29° WSW visible
